K1PH Weather Reports


time (UTC)temp
F
wind
direction
speed
knots
gust
knots
rain 1hr
in
rain 24hr
in
rain mn
in
humidity
%
barometer
mb
20260903065007 64 122 0.0 0.9 0.00 0.00 0.00 87 1000.5
20260903064007 64 122 0.0 0.9 0.00 0.00 0.00 87 1000.5
20260903062008 64 122 0.0 0.9 0.00 0.00 0.00 87 1000.5
20260903061008 64 122 0.0 0.9 0.00 0.00 0.00 87 1000.5
20260903060007 64 122 0.0 0.9 0.00 0.00 0.00 87 1000.5
20260903055007 64 122 0.0 0.9 0.00 0.00 0.00 87 1000.5
20260903054007 64 122 0.0 0.9 0.00 0.00 0.00 87 1000.5
20260903053007 64 122 0.0 0.9 0.00 0.00 0.00 87 1000.5
20260903052008 64 122 0.0 0.9 0.00 0.00 0.00 87 1000.5
20260903051007 64 122 0.0 0.9 0.00 0.00 0.00 87 1000.5
20260903050007 64 122 0.0 0.9 0.00 0.00 0.00 87 1000.5
20260903045007 64 122 0.0 0.9 0.00 0.00 0.00 87 1000.5
20260903044007 64 122 0.0 0.9 0.00 0.00 0.00 87 1000.5
20260903043007 64 122 0.0 0.9 0.00 0.00 0.00 87 1000.5
20260903042007 64 122 0.0 0.9 0.00 0.00 0.00 87 1000.5
20260903040009 64 122 0.0 0.9 0.00 0.00 0.00 87 1000.5
20260903035007 64 122 0.0 0.9 0.00 0.00 0.00 87 1000.5
20260903034007 64 122 0.0 0.9 0.00 0.00 0.00 87 1000.5
20260903033007 64 122 0.0 0.9 0.00 0.00 0.00 87 1000.5
20260903032007 64 122 0.0 0.9 0.00 0.00 0.00 87 1000.5
20260903031007 64 122 0.0 0.9 0.00 0.00 0.00 87 1000.5
20260903030007 64 122 0.0 0.9 0.00 0.00 0.00 87 1000.5
20260903025006 64 122 0.0 0.9 0.00 0.00 0.00 87 1000.5
20260903024007 64 122 0.0 0.9 0.00 0.00 0.00 87 1000.5
20260903023007 64 122 0.0 1.7 0.00 0.00 0.00 87 1000.5
20260903022006 64 129 0.9 0.9 0.00 0.00 0.00 88 1000.5
20260903020007 64 138 0.0 0.9 0.00 0.00 0.00 89 1000.9
20260903015007 64 141 0.0 0.9 0.00 0.00 0.00 88 1000.9
20260903014006 64 126 0.0 0.9 0.00 0.00 0.00 89 1001.0
20260903013007 64 131 0.0 0.0 0.00 0.00 0.00 88 1001.0
20260903011006 65 131 0.0 0.9 0.00 0.00 0.00 88 1000.8
20260903010006 65 129 0.0 0.0 0.00 0.00 0.00 85 1001.2
20260903005006 65 129 0.0 0.9 0.00 0.00 0.00 83 1001.0
20260903004006 65 126 0.9 1.7 0.00 0.00 0.00 82 1000.5
20260903003006 65 50 0.9 2.6 0.00 0.00 0.00 82 1000.5
20260903002006 65 157 0.9 0.9 0.00 0.00 0.00 82 1000.2
20260903001007 65 137 0.9 0.9 0.00 0.00 0.00 83 1000.4
20260903000006 65 129 0.0 0.9 0.00 0.00 0.00 83 1000.8
20260902235006 65 133 0.0 0.9 0.00 0.00 0.00 83 1000.6
20260902234006 66 137 0.0 0.9 0.00 0.00 0.00 82 1000.8
20260902233006 66 143 0.9 0.9 0.00 0.00 0.00 81 1001.0
20260902232006 67 103 0.0 2.6 0.00 0.00 0.00 80 1001.2
20260902231006 67 106 0.9 2.6 0.00 0.00 0.00 79 1001.3
20260902230005 67 99 0.9 1.7 0.00 0.00 0.00 83 1001.6
20260902224006 67 95 0.9 1.7 0.00 0.00 0.00 85 1002.0
20260902223006 67 115 1.7 1.7 0.00 0.00 0.00 86 1001.9
20260902222006 68 139 0.0 0.9 0.00 0.00 0.00 88 1002.0
20260902215006 68 156 0.0 0.0 0.00 0.00 0.00 89 1001.9
20260902214005 69 156 0.0 0.0 0.00 0.00 0.00 88 1001.8
20260902213005 69 156 0.0 0.0 0.00 0.00 0.00 86 1001.8
20260902212005 69 156 0.0 0.9 0.00 0.00 0.00 86 1001.9
20260902210005 70 121 0.0 0.9 0.00 0.00 0.00 84 1001.8
20260902205005 70 127 0.0 0.0 0.00 0.00 0.00 82 1001.8
20260902204005 70 127 0.0 1.7 0.00 0.00 0.00 81 1001.8
20260902203005 70 108 1.7 2.6 0.00 0.00 0.00 80 1001.5
20260902201011 70 149 0.0 0.9 0.00 0.00 0.00 80 1002.1
20260902194011 71 105 1.7 2.6 0.00 0.00 0.00 77 1002.0
20260902193011 70 146 1.7 2.6 0.00 0.00 0.00 77 1002.2
20260902192011 70 90 2.6 4.3 0.00 0.00 0.00 77 1002.3
20260902191011 70 119 1.7 4.3 0.00 0.00 0.00 78 1002.5
20260902190010 69 87 1.7 2.6 0.00 0.00 0.00 81 1002.5
20260902184010 69 117 0.9 2.6 0.00 0.00 0.00 82 1002.7
20260902183011 69 83 0.9 2.6 0.00 0.00 0.00 84 1002.7
20260902182014 69 101 1.7 2.6 0.00 0.00 0.00 81 1002.7
20260902180010 69 62 1.7 2.6 0.00 0.00 0.00 79 1002.6
20260902175010 68 111 1.7 2.6 0.00 0.00 0.00 81 1002.6
20260902174010 68 108 1.7 2.6 0.00 0.00 0.00 81 1002.8
20260902173010 68 123 0.9 1.7 0.00 0.00 0.00 82 1002.9
20260902172010 67 125 0.9 1.7 0.00 0.00 0.00 82 1003.0
20260902171010 67 121 0.0 0.9 0.00 0.00 0.00 85 1003.0
20260902170010 67 127 0.9 1.7 0.00 0.00 0.00 83 1003.1
20260902165009 67 111 1.7 4.3 0.00 0.00 0.00 83 1003.1
20260902164010 67 86 1.7 2.6 0.00 0.00 0.00 83 1003.1
20260902163010 67 124 1.7 4.3 0.00 0.00 0.00 83 1003.1
20260902162010 67 137 0.9 2.6 0.00 0.00 0.00 82 1003.3
20260902161010 67 140 0.9 2.6 0.00 0.00 0.00 85 1003.2
20260902160010 67 100 2.6 4.3 0.00 0.00 0.00 84 1003.4
20260902155009 67 82 0.9 1.7 0.00 0.00 0.00 87 1003.5
20260902154009 66 129 0.0 1.7 0.00 0.00 0.00 85 1003.7
20260902153010 66 108 0.9 2.6 0.00 0.00 0.00 85 1003.8
20260902151009 66 112 1.7 2.6 0.00 0.00 0.00 85 1004.1
20260902150009 66 139 0.9 2.6 0.00 0.00 0.00 86 1004.0
20260902145009 66 112 0.9 4.3 0.00 0.00 0.00 84 1003.9
20260902144009 66 115 1.7 2.6 0.00 0.00 0.00 83 1003.8
20260902143009 66 66 0.9 2.6 0.00 0.00 0.00 86 1003.9
20260902142009 66 118 0.9 2.6 0.00 0.00 0.00 87 1003.8
20260902141009 66 82 0.9 2.6 0.00 0.00 0.00 86 1003.7
20260902140009 65 90 0.0 1.7 0.00 0.00 0.00 88 1003.8
20260902135009 65 133 0.0 1.7 0.00 0.00 0.00 88 1003.7
20260902133009 65 58 0.9 2.6 0.00 0.00 0.00 88 1003.2
20260902132009 64 136 0.9 0.9 0.00 0.00 0.00 88 1003.1
20260902130008 63 123 0.9 1.7 0.00 0.00 0.00 91 1003.0
20260902125009 62 233 0.9 0.9 0.00 0.00 0.00 93 1003.0
20260902124009 62 219 0.9 0.9 0.00 0.00 0.00 94 1002.9
20260902123009 62 201 0.9 0.9 0.00 0.00 0.00 94 1002.8
20260902121008 62 190 0.0 0.9 0.00 0.00 0.00 95 1002.8
20260902120008 61 194 0.0 0.9 0.00 0.00 0.00 95 1002.8
20260902115009 61 214 0.0 0.0 0.00 0.00 0.00 95 1002.8
20260902114008 61 214 0.0 0.9 0.00 0.00 0.00 95 1002.9
20260902113008 61 198 0.0 0.0 0.00 0.00 0.00 95 1002.9
20260902111008 61 196 0.0 0.9 0.00 0.00 0.00 95 1003.1
20260902110008 61 206 0.0 0.0 0.00 0.00 0.00 95 1003.0
20260902105008 61 206 0.0 0.0 0.00 0.00 0.00 95 1002.9
20260902103008 61 206 0.0 0.0 0.00 0.00 0.00 95 1002.7
20260902102008 61 206 0.0 0.0 0.00 0.00 0.00 95 1002.6
20260902101008 61 206 0.0 0.0 0.00 0.00 0.00 95 1002.4
20260902100008 61 206 0.0 0.0 0.00 0.00 0.00 95 1002.3
20260902094008 61 206 0.0 0.9 0.00 0.00 0.00 95 1002.3
20260902093008 61 189 0.0 0.0 0.00 0.00 0.00 95 1002.4
20260902091009 61 189 0.0 0.9 0.00 0.00 0.00 95 1002.1
20260902085008 61 157 0.9 0.9 0.00 0.00 0.00 95 1001.8
20260902084008 61 141 0.0 0.0 0.00 0.00 0.00 95 1002.0
20260902083008 61 141 0.0 0.0 0.00 0.00 0.00 95 1002.0
20260902082008 61 141 0.0 0.0 0.00 0.00 0.00 95 1001.9
20260902081008 61 141 0.9 0.9 0.00 0.00 0.00 95 1001.9
20260902075007 61 152 0.0 0.0 0.00 0.00 0.00 95 1002.1
20260902074008 61 152 0.0 0.0 0.00 0.00 0.00 95 1002.0
20260902073008 61 152 0.0 0.9 0.00 0.00 0.00 95 1002.0
20260902072007 61 158 0.9 0.9 0.00 0.00 0.00 95 1002.0
20260902071007 61 139 0.9 1.7 0.00 0.00 0.00 95 1002.2
20260902070007 61 132 0.9 0.9 0.00 0.00 0.00 95 1002.3